TIANMU-1 18

Last updated on Wed Sep 23 2026 00:03:10 GMT+0000 (Coordinated Universal Time)

1 58703U 24004D 26265.61550153 .00003667 00000+0 13908-3 0 9995 2 58703 97.4662 91.8218 0005040 12.4657 347.6706 15.27501851150646
UTC large
Height (km)
Speed (km/s)
/
Latitude / Longitude
Inclination (degrees)
Orbital Period (minutes)
Azimuth
Elevation
Range (km)
Doppler Factor

Next 0 passes for location: London (51.5072 / 0.1276)

No passes found over London.
TIANMU-1 18